Regional Weather Roundup
Issued by NWS

Home | Current Version | Previous Version | Text Only | Print | Product List | Glossary Off
Versions: 1 2 3 4 5 6 7 8 9 10 11 12 13 14 15 16 17 18 19 20 21 22 23 24 25 26 27 28 29 30 31 32 33 34 35 36 37 38 39 40 41 42 43 44 45 46 47 48 49 50

639
ASUS43 KDTX 191610
RWRMI
MICHIGAN HOURLY REGIONAL WEATHER ROUNDUP
NATIONAL WEATHER SERVICE DETROIT/PONTIAC MI
1100 AM EST MON FEB 19 2018

NOTE: "FAIR" INDICATES FEW OR NO CLOUDS BELOW 12,000 FEET WITH NO
SIGNIFICANT WEATHER AND/OR OBSTRUCTION TO VISIBILITY.

MIZ047>049-052>055-059>063-066>070-074>076-081>083-191700-
SOUTHEAST LOWER MICHIGAN

CITY           SKY/WX    TMP DP  RH WIND       PRES   REMARKS
ADRIAN         FOG       38  38 100 SW3       30.00R VSB 1/4
ALMA           CLOUDY    38  38  97 S7        29.94R FOG     WCI  33
ANN ARBOR      FOG       36  36 100 S3        29.98F VSB 1/4
BAD AXE        CLOUDY    36  32  86 S7        29.95F WCI  30
CARO           CLOUDY    40  37  87 S8        29.95S WCI  35
DETROIT CITY   CLOUDY    40  38  93 SW6       30.01S FOG
DETROIT        LGT RAIN  38  38 100 S7        30.00S VSB 3/4 WCI  33
FLINT          CLOUDY    38  35  89 S10       29.99R WCI  31
GROSSE ILE     FOG       35  34  97 S5        30.00R VSB 1   WCI  31
HILLSDALE      RAIN      39  37  93 S6        29.96S VSB 1/4 WCI  35
HOWELL         CLOUDY    38  38  99 S7        29.98R FOG     WCI  33

CITY           SKY/WX    TMP DP  RH WIND       PRES   REMARKS
JACKSON        FOG       41  41 100 S9        29.97R VSB 1
LAMBERTVILLE   RAIN      42  41  96 S7        30.00S
LANSING        CLOUDY    40  39  97 S9        29.97R FOG     WCI  34
LAPEER         CLOUDY    38  37  94 S6        29.97S WCI  34
MASON          CLOUDY    38  35  88 S8        29.98R FOG     WCI  32
MONROE         LGT RAIN  42  40  93 S5        30.00R
MT. CLEMENS    CLOUDY    36  36 100 S5        29.99S WCI  32
PONTIAC        FOG       37  37 100 S8        29.98S VSB 1/2 WCI  31
PORT HOPE        N/A     39  31  72 S5        29.94F
PORT HURON     CLOUDY    36  34  93 S5        30.01R FOG     WCI  32
TRI CITIES     CLOUDY    39  35  86 S8        29.96R WCI  33
MIDLAND        CLOUDY    40  35  83 S6        29.94R
TROY           CLOUDY    38  37  94 SW5       30.02R FOG     WCI  35
SAGINAW HB     CLOUDY    39  36  87 S5        29.96R
$$
MIZ043>046-050>051-056>058-064>065-071>073-077>080-191700-
SOUTHWEST LOWER MICHIGAN

CITY           SKY/WX    TMP DP  RH WIND       PRES   REMARKS
BATTLE CREEK   FOG       39  38  96 SE5       29.95R VSB<1/4
BENTON HARBOR  LGT RAIN  42  40  92 E5        29.90F VSB 1/2
BIG RAPIDS     FAIR      40  33  74 S5        29.89S
COLDWATER      RAIN      40  40 100 CALM      29.94F VSB 1/2
FREMONT        CLOUDY    39  35  84 S7        29.91R FOG     WCI  34
HOLLAND        CLOUDY    42  40  92 S7        29.92R FOG
GRAND RAPIDS   FOG       40  38  93 S10       29.94R VSB 3/4 WCI  33
IONIA          CLOUDY    38  38  99 S10       29.95R FOG     WCI  32
KALAMAZOO      FOG       40  39  97 CALM      29.94F VSB<1/4
LUDINGTON      FAIR      43  36  77 CALM      29.87S
MARSHALL       CLOUDY    40  39  98 S6        29.96R FOG
MOUNT PLEASANT CLOUDY    39  34  81 S6        29.93R
MUSKEGON       CLOUDY    41  38  89 S13       29.93R
SOUTH HAVEN    CLOUDY    41  40  95 S5        29.92S FOG
$$
MIZ016>042-191700-
NORTHERN LOWER MICHIGAN

CITY           SKY/WX    TMP DP  RH WIND       PRES   REMARKS
ALPENA         CLOUDY    36  30  79 S5        29.95S WCI  32
BEAVER ISLAND  CLOUDY    39  32  77 CALM      29.93S
BELLAIRE       PTSUNNY   39  32  76 CALM      29.92S
CADILLAC       CLOUDY    39  32  78 S5        29.89R
CHARLEVOIX     PTSUNNY   37  31  78 E5        29.94F WCI  33
FRANKFORT      FAIR      42  32  68 CALM      29.90R
GAYLORD        CLOUDY    33  30  88 S3        29.89F
GRAYLING       CLOUDY    35  30  82 E3        29.90F
HARBOR SPRINGS CLOUDY    37  29  75 CALM      29.93S
HOUGHTON LAKE  CLOUDY    36  30  79 VRB3      29.91F
MANISTEE       FAIR      40  32  73 E3        29.88R
OSCODA         CLOUDY    37  29  74 SW8       29.93F WCI  30
PELLSTON       CLOUDY    35  29  78 CALM      29.93S
ROGERS CITY    CLOUDY    37  29  75 CALM      29.94F
TRAVERSE CITY  CLOUDY    39  31  72 N5        29.90S
$$
MIZ007>008-015-191700-
EASTERN UPPER MICHIGAN

CITY           SKY/WX    TMP DP  RH WIND       PRES   REMARKS
KINROSS        CLOUDY    34  28  79 N3        29.95R
MACKINAC ISLAN CLOUDY    35  28  73 CALM      29.93F
NEWBERRY       CLOUDY    34  29  82 NW6       29.94R WCI  29
S. S. MARIE    CLOUDY    36  29  75 E5        29.96R WCI  32
MUNISING         N/A     27  26  96 NW16      30.00R WCI  15
$$
MIZ004>006-011>014-085-191700-
CENTRAL UPPER MICHIGAN

CITY           SKY/WX    TMP DP  RH WIND       PRES   REMARKS
MANISTIQUE     CLOUDY    33  30  90 N10G17    29.94S WCI  25
ESCANABA       CLOUDY    29  24  82 N8G17     29.97R WCI  21
MENOMINEE      CLOUDY    34  29  82 NE10      29.93S WCI  26
SAWYER-GWINN   CLOUDY    19  18  93 N18G24    29.99R WCI   4
$$
MIZ001>003-009>011-084-191700-
WESTERN UPPER MICHIGAN

CITY           SKY/WX    TMP DP  RH WIND       PRES   REMARKS
IRON MOUNTAIN  CLOUDY    24  19  81 N12       29.96R WCI  13
HOUGHTON       SNOW      18  12  77 N15       30.05S VSB 1/2 WCI   4
COPPER HARBOR    N/A     18  13  80 NE21      30.11R WCI   1
IRONWOOD       LGT SNOW  18  12  79 NE10      30.04S FOG     WCI   6
$$

ABBREVIATIONS USED IN REMARKS
   TC - TEMPERATURE IN CELSIUS
  WCI - WIND CHILL INDEX
   HX - HEAT INDEX
  VSB - VISIBILITY





USA.gov is the U.S. government's official web portal to all federal, state and local government web resources and services.